• In Hungary
  • List of Countries
  • For 7 days
  • Water Temperature
  • Satellite Maps
  • Weather Map
  • News
  • Weather Widgets
  • user-avatar
    Login

    Hourly Weather Zrab

    Today, 24 September, Monday

    Time Temperature Precipitation Wind Pressure Humidity
    00:00 +12°C° 0.8 mm 7 mps 729 mmHg 64%
    01:00 +14°C° 0.8 mm 7 mps 728 mmHg 69%
    02:00 +14°C° 0 mm 4 mps 727 mmHg 79%
    03:00 +14°C° 0.6 mm 6 mps 727 mmHg 80%
    04:00 +13°C° 0.6 mm 8 mps 727 mmHg 81%
    05:00 +13°C° 0.6 mm 10 mps 727 mmHg 82%
    06:00 +11°C° 0.1 mm 10 mps 728 mmHg 82%
    07:00 +9°C° 0.1 mm 10 mps 730 mmHg 82%
    08:00 +7°C° 0 mm 11 mps 731 mmHg 82%
    09:00 +7°C° 0.1 mm 10 mps 732 mmHg 80%
    10:00 +7°C° 0.1 mm 10 mps 734 mmHg 77%
    11:00 +7°C° 0.1 mm 9 mps 735 mmHg 75%
    12:00 +8°C° 0.1 mm 10 mps 736 mmHg 72%
    13:00 +8°C° 0.1 mm 10 mps 736 mmHg 69%
    14:00 +8°C° 0.1 mm 10 mps 737 mmHg 66%
    15:00 +8°C° 0 mm 9 mps 737 mmHg 66%
    16:00 +8°C° 0 mm 9 mps 737 mmHg 66%
    17:00 +7°C° 0 mm 8 mps 738 mmHg 66%
    18:00 +7°C° 0 mm 8 mps 738 mmHg 68%
    19:00 +8°C° 0 mm 7 mps 738 mmHg 70%
    20:00 +7°C° 0 mm 6 mps 739 mmHg 72%
    21:00 +7°C° 0.1 mm 6 mps 739 mmHg 73%
    22:00 +7°C° 0.1 mm 6 mps 740 mmHg 74%
    23:00 +5°C° 0.1 mm 6 mps 740 mmHg 75%

    Tomorrow, 25 September, Tuesday

    Time Temperature Precipitation Wind Pressure Humidity
    00:00 +5°C° 0 mm 6 mps 740 mmHg 75%
    01:00 +5°C° 0 mm 6 mps 741 mmHg 75%
    02:00 +4°C° 0 mm 6 mps 741 mmHg 75%
    03:00 +4°C° 0 mm 6 mps 742 mmHg 76%
    04:00 +3°C° 0 mm 6 mps 742 mmHg 76%
    05:00 +3°C° 0 mm 5 mps 743 mmHg 77%
    06:00 +3°C° 0 mm 6 mps 743 mmHg 75%
    07:00 +4°C° 0 mm 6 mps 744 mmHg 74%
    08:00 +4°C° 0 mm 7 mps 745 mmHg 72%
    09:00 +6°C° 0 mm 7 mps 745 mmHg 67%
    10:00 +8°C° 0 mm 7 mps 746 mmHg 61%
    11:00 +9°C° 0 mm 7 mps 746 mmHg 56%
    12:00 +10°C° 0.3 mm 7 mps 747 mmHg 56%
    13:00 +10°C° 0.3 mm 8 mps 747 mmHg 56%
    14:00 +10°C° 0.3 mm 8 mps 747 mmHg 56%
    15:00 +10°C° 0.2 mm 7 mps 747 mmHg 58%
    16:00 +9°C° 0.2 mm 7 mps 748 mmHg 60%
    17:00 +9°C° 0.2 mm 6 mps 748 mmHg 62%
    18:00 +8°C° 0 mm 6 mps 749 mmHg 66%
    19:00 +7°C° 0 mm 5 mps 749 mmHg 70%
    20:00 +6°C° 0 mm 4 mps 750 mmHg 73%
    21:00 +5°C° 0 mm 4 mps 750 mmHg 74%
    22:00 +5°C° 0 mm 4 mps 751 mmHg 75%
    23:00 +4°C° 0 mm 4 mps 751 mmHg 76%

    Day after tomorrow, 26 September, Wednesday

    Time Temperature Precipitation Wind Pressure Humidity
    00:00 +4°C° 0 mm 4 mps 752 mmHg 78%
    01:00 +3°C° 0 mm 3 mps 752 mmHg 79%
    02:00 +3°C° 0 mm 3 mps 752 mmHg 80%
    03:00 +2°C° 0 mm 3 mps 752 mmHg 82%
    04:00 +2°C° 0 mm 3 mps 753 mmHg 83%
    05:00 +3°C° 0 mm 2 mps 753 mmHg 85%
    06:00 +3°C° 0 mm 2 mps 753 mmHg 81%
    07:00 +4°C° 0 mm 2 mps 753 mmHg 77%
    08:00 +4°C° 0 mm 3 mps 754 mmHg 73%
    09:00 +7°C° 0 mm 3 mps 753 mmHg 65%
    10:00 +9°C° 0 mm 3 mps 753 mmHg 56%
    11:00 +11°C° 0 mm 3 mps 753 mmHg 48%
    12:00 +11°C° 0 mm 4 mps 753 mmHg 47%
    13:00 +12°C° 0 mm 4 mps 752 mmHg 46%
    14:00 +13°C° 0 mm 5 mps 752 mmHg 45%
    15:00 +12°C° 0 mm 4 mps 751 mmHg 48%
    16:00 +12°C° 0 mm 4 mps 751 mmHg 50%
    17:00 +12°C° 0 mm 3 mps 750 mmHg 52%
    18:00 +11°C° 0 mm 4 mps 750 mmHg 53%
    19:00 +10°C° 0 mm 4 mps 750 mmHg 54%
    20:00 +10°C° 0 mm 4 mps 750 mmHg 54%
    21:00 +10°C° 0 mm 4 mps 749 mmHg 53%
    22:00 +9°C° 0 mm 5 mps 749 mmHg 51%
    23:00 +9°C° 0 mm 5 mps 748 mmHg 49%

    27 September, Thursday

    Time Temperature Precipitation Wind Pressure Humidity
    00:00 +9°C° 0 mm 5 mps 748 mmHg 50%
    01:00 +9°C° 0 mm 6 mps 748 mmHg 50%
    02:00 +9°C° 0 mm 6 mps 747 mmHg 50%
    03:00 +9°C° 0 mm 6 mps 747 mmHg 50%
    04:00 +9°C° 0 mm 6 mps 747 mmHg 50%
    05:00 +9°C° 0 mm 6 mps 746 mmHg 49%
    06:00 +10°C° 0 mm 7 mps 746 mmHg 50%
    07:00 +10°C° 0 mm 7 mps 746 mmHg 51%
    08:00 +10°C° 0 mm 7 mps 746 mmHg 52%
    09:00 +11°C° 0 mm 7 mps 746 mmHg 53%
    10:00 +14°C° 0 mm 7 mps 746 mmHg 53%
    11:00 +15°C° 0 mm 7 mps 746 mmHg 53%
    12:00 +16°C° 0 mm 7 mps 746 mmHg 54%
    13:00 +17°C° 0 mm 7 mps 745 mmHg 54%
    14:00 +18°C° 0 mm 7 mps 745 mmHg 55%
    15:00 +18°C° 0 mm 7 mps 745 mmHg 58%
    16:00 +19°C° 0 mm 6 mps 745 mmHg 61%
    17:00 +19°C° 0 mm 5 mps 744 mmHg 64%
    18:00 +16°C° 0 mm 5 mps 744 mmHg 69%
    19:00 +15°C° 0 mm 4 mps 744 mmHg 74%
    20:00 +14°C° 0 mm 3 mps 744 mmHg 78%
    21:00 +14°C° 0 mm 3 mps 744 mmHg 78%
    22:00 +14°C° 0 mm 3 mps 744 mmHg 78%
    23:00 +14°C° 0 mm 3 mps 744 mmHg 78%

    28 September, Friday

    Time Temperature Precipitation Wind Pressure Humidity
    00:00 +13°C° 0 mm 3 mps 744 mmHg 82%
    01:00 +13°C° 0 mm 3 mps 744 mmHg 86%
    02:00 +12°C° 0 mm 3 mps 743 mmHg 90%
    03:00 +11°C° 0 mm 3 mps 743 mmHg 90%
    04:00 +11°C° 0 mm 3 mps 743 mmHg 91%
    05:00 +11°C° 0 mm 4 mps 742 mmHg 91%
    06:00 +12°C° 0 mm 4 mps 742 mmHg 87%
    07:00 +12°C° 0 mm 4 mps 742 mmHg 82%
    08:00 +13°C° 0 mm 5 mps 742 mmHg 78%
    09:00 +15°C° 0 mm 5 mps 742 mmHg 71%
    10:00 +17°C° 0 mm 5 mps 741 mmHg 65%
    11:00 +20°C° 0 mm 5 mps 741 mmHg 58%
    12:00 +20°C° 0 mm 5 mps 741 mmHg 56%
    13:00 +21°C° 0 mm 5 mps 741 mmHg 53%
    14:00 +22°C° 0 mm 6 mps 741 mmHg 50%
    15:00 +21°C° 0 mm 5 mps 740 mmHg 53%
    16:00 +21°C° 0 mm 4 mps 740 mmHg 55%
    17:00 +20°C° 0 mm 3 mps 740 mmHg 58%
    18:00 +19°C° 0 mm 3 mps 740 mmHg 63%
    19:00 +17°C° 0 mm 3 mps 740 mmHg 67%
    20:00 +16°C° 0 mm 2 mps 740 mmHg 72%
    21:00 +15°C° 0 mm 2 mps 740 mmHg 74%
    22:00 +14°C° 0 mm 2 mps 740 mmHg 77%
    23:00 +13°C° 0 mm 2 mps 740 mmHg 80%

    29 September, Saturday

    Time Temperature Precipitation Wind Pressure Humidity
    00:00 +13°C° 0 mm 2 mps 740 mmHg 77%
    01:00 +13°C° 0 mm 2 mps 740 mmHg 75%
    02:00 +13°C° 0 mm 2 mps 741 mmHg 72%
    03:00 +11°C° 0.2 mm 3 mps 741 mmHg 74%
    04:00 +11°C° 0.2 mm 3 mps 741 mmHg 75%
    05:00 +10°C° 0.2 mm 4 mps 741 mmHg 76%
    06:00 +8°C° 1 mm 4 mps 741 mmHg 79%
    07:00 +9°C° 1 mm 3 mps 742 mmHg 82%
    08:00 +8°C° 1 mm 3 mps 742 mmHg 85%
    09:00 +9°C° 0.3 mm 3 mps 743 mmHg 79%
    10:00 +10°C° 0.3 mm 4 mps 744 mmHg 72%
    11:00 +10°C° 0.3 mm 4 mps 744 mmHg 66%
    12:00 +11°C° 0 mm 4 mps 745 mmHg 60%
    13:00 +12°C° 0 mm 4 mps 745 mmHg 55%
    14:00 +12°C° 0 mm 4 mps 745 mmHg 50%
    15:00 +12°C° 0 mm 4 mps 745 mmHg 50%
    16:00 +12°C° 0 mm 4 mps 745 mmHg 50%
    17:00 +11°C° 0 mm 3 mps 745 mmHg 50%
    18:00 +10°C° 0 mm 3 mps 745 mmHg 54%
    19:00 +8°C° 0 mm 3 mps 746 mmHg 58%
    20:00 +7°C° 0 mm 2 mps 746 mmHg 61%
    21:00 +6°C° 0 mm 2 mps 746 mmHg 63%
    22:00 +6°C° 0 mm 2 mps 747 mmHg 65%
    23:00 +5°C° 0 mm 2 mps 747 mmHg 67%
    Show more